Simultaneous Nadir Overpasses (SNOs) Predictions

Prediction of SNOs between LANDSAT-8 and METOP-B Satellite Orbit:

Table of predicted SNOs for the next 14.0 days since TLE Epoch: 8/8/2020
Index Date (LANDSAT-8) Time (LANDSAT-8) Lat,Lon (LANDSAT-8) SZA (LANDSAT-8 ) Date (METOP-B) Time (METOP-B) Lat,Lon (METOP-B) SZA (METOP-B ) Distance(km) Time Diff (sec)
1 08/09/2020 12:46:33 -81.16,-150.93 112.40 08/09/2020 12:45:54 -81.17,-150.78 112.40 2.76 39
2 08/09/2020 13:35:58 81.19, 17.17 67.68 08/09/2020 13:36:33 81.20, 17.31 67.71 2.34 35
3 08/12/2020 08:20:48 -81.18, -84.23 111.52 08/12/2020 08:20:14 -81.18, -84.06 111.52 3.03 34
4 08/12/2020 09:10:13 81.21, 83.84 68.56 08/12/2020 09:10:53 81.20, 84.02 68.59 3.09 40
5 08/15/2020 03:55:03 -81.17, -17.92 110.66 08/15/2020 03:54:35 -81.17, -18.10 110.70 3.02 28
6 08/15/2020 04:44:28 81.20, 150.11 69.41 08/15/2020 04:45:14 81.19, 149.96 69.41 2.74 46
7 08/17/2020 23:29:18 -81.18, 48.73 109.73 08/17/2020 23:28:55 -81.18, 48.60 109.75 2.28 23
8 08/18/2020 00:18:43 81.21,-143.26 70.34 08/18/2020 00:19:34 81.20,-143.36 70.35 1.84 51
9 08/20/2020 19:03:34 -81.17, 114.99 108.82 08/20/2020 19:03:16 -81.17, 114.91 108.83 1.26 18
